Flag for U.S.A. Weather past 2 weeks in St. Paul, Minnesota, U.S.A.

Now
75 °F

Partly sunny.


Feels Like: 78 °F
Forecast: 56 / 79 °F
Wind: 12 mph from West

Location: St. Paul Downtown Holman Field

Current Time: Aug 3, 2015 at 9:06:22 PM

Latest Report: Aug 3, 2015 at 7:53 PM


Visibility: 10 mi

Pressure: 29.87 "Hg

Humidity: 45%

Dew point: 52 °F

Location of St. PaulLocation

Historic Weather in St. Paul — Graph

°F

St. Paul temperature yesterday

Maximum temperature yesterday: 84 °F (at 3:53 PM)
Minimum temperature yesterday: 68 °F (at 11:53 PM)
Average temperature yesterday: 77 °F

Past Weeks' High & Low Weather Summary

 TemperatureHumidityPressure
High87 °F (Jul 25, 4:53 PM)97% (Jul 28, 8:00 AM)30.05 "Hg (Jul 28, 8:00 AM)
Low60 °F (Jul 21, 5:53 AM)31% (Jul 31, 4:53 PM)29.60 "Hg (Aug 2, 10:53 AM)
Average75 °F64%29.89 "Hg
* Reported Jul 19 7:53 PM — Aug 3 7:53 PM, St. Paul, Weather by CustomWeather, © 2015

Note: Actual official high and low records may vary slightly from our data, if they occured in-between our weather recording intervals... More about our weather records

Advertising

St. Paul weather history for previous 24 hours

 ConditionsComfort  
Time TempWeatherWind HumidityBarometerVisibility
7:53 PM
Mon, Aug 3
75 °FPartly sunny.12 mph45%29.87 "Hg10 mi
6:53 PM76 °FPartly sunny.16 mph40%29.87 "Hg10 mi
5:53 PM78 °FScattered clouds.14 mph36%29.87 "Hg10 mi
4:53 PM79 °FPartly sunny.14 mph35%29.87 "Hg10 mi
3:53 PM78 °FScattered clouds.14 mph35%29.88 "Hg10 mi
2:53 PM78 °FScattered clouds.12 mph35%29.88 "Hg10 mi
1:53 PM78 °FPassing clouds.15 mph35%29.89 "Hg10 mi
12:53 PM76 °FSunny.15 mph36%29.89 "Hg10 mi
11:53 AM75 °FSunny.17 mph37%29.90 "Hg10 mi
10:53 AM74 °FSunny.15 mph38%29.89 "Hg10 mi
9:53 AM73 °FSunny.15 mph41%29.89 "Hg10 mi
8:53 AM70 °FSunny.8 mph53%29.88 "Hg10 mi
7:53 AM65 °FSunny.5 mph66%29.87 "Hg10 mi
6:53 AM61 °FClear.7 mph75%29.87 "Hg10 mi
5:53 AM60 °FClear.No wind75%29.86 "Hg10 mi
4:53 AM61 °FClear.6 mph70%29.85 "Hg10 mi
3:53 AM61 °FClear.5 mph67%29.85 "Hg10 mi
2:53 AM63 °FClear.3 mph63%29.85 "Hg10 mi
1:53 AM65 °FClear.5 mph59%29.85 "Hg10 mi
12:53 AM66 °FClear.10 mph56%29.84 "Hg10 mi
11:53 PM
Sun, Aug 2
68 °FClear.10 mph53%29.82 "Hg10 mi
10:53 PM69 °FClear.10 mph53%29.80 "Hg10 mi
9:53 PM71 °FClear.16 mph49%29.78 "Hg10 mi
Weather by CustomWeather, © 2015

See weather overviewHow to use our weather pages